Tracking 20748 objects as of 4-Jun-2020
HD Live streaming from Space Station
objects crossing your sky now
Track the most recent launched group of Starlink satellites

SL-8 DEB

Track SL-8 DEB now!
10-day predictions


NORAD ID: 21177
Int'l Code: 1991-009AQ
Perigee: 1,511.9 km
Apogee: 1,744.5 km
Inclination: 74.1 °
Period: 118.7 minutes
Semi major axis: 7999 km
RCS: 0.199 m2 (medium)
Launch date: February 12, 1991
Source: Commonwealth of Independent States (former USSR) (CIS)
Launch site: PLESETSK MISSILE AND SPACE COMPLEX (PKMTR)

Note: This is SATELLITE DEBRIS
aabbcc
Your satellite tracking list
Your tracking list is empty




NASA's NSSDC Master Catalog

Two Line Element Set (TLE):
1 21177U 91009AQ  20156.40992613 -.00000004 +00000-0 +11076-3 0  9998
2 21177 074.1076 295.3829 0145425 306.9864 080.6332 12.13476905295624
Source of the keplerian elements: AFSPC